Погода в Красноуфимске

Погода в Красноуфимске : погода сейчас, прогноз погоды и архив. Всё, что Вы хотите узнать о погоде в Красноуфимске!

Хотите узнать прогноз погоды в Красноуфимске? Тогда Вам сюда: Погода в Красноуфимске

Поиск расширенной информации на нашем сайте:

Другие новости

Новости СМИ2

Главная страница сайта

Новости сайта

03.07.2017

Напоминаем, что на нашем специализированном сайте Метеоцентр.Азия вы можете получить высокодетализированные автоматические прогнозы погоды по пунктам России, СНГ и мира в авиационном формате (включающие направление и скорость ветра, видимость, явления погоды, количество и форму облачности, нижнюю и верхнюю границу облачности).

Рекомендуем: Работы по хозяйству; гарантия качества.

Погода в Красноуфимске - сегодня

Время (UTC), дата Ветер
(°,м/с) 
Видим.   Явления Облачность Т
(°С)
Тd
(°С)
f(%) Тe
(°С)
Pmin
(гПа)
dP
(гПа)
Po
(мм)
O2
(г/м3)
Тmin Tmax R s Состояние
почвы
03 17.05.18 140 (ЮВ) 20000 м    9/8 600 м средняя 
[Sc|Ac trans]
+3.3 -1.5 71 +4  1019.2  -0.2  745  297  -4.5        влажная 
06 17.05.18 210 (ЮЗ) 20000 м    9/0 верхняя 
[Ci fib]
+15.5 -4.7 24 +17  1016.4  -1.7  744  284           
09 17.05.18 260 (З) 20000 м    3/3 1000 м 
[Cu med, cong]
+18.4 -3.7 22 +19  1015  -1.1  743  281           
12 17.05.18 300 (СЗ) 20000 м    3/3 1000 м 
[Cu med, cong]
+19.5 -1.3 25 +20  1014.2  -0.7  743  279           
18 17.05.18 270 (З) 20000 м    9/0 верхняя 
[Ci fib]
+10.5 +2.2 56 +12  1014.7  0.5  742  288           
21 17.05.18 270 (З) 20000 м    9/0 верхняя 
[Ci fib]
+11.8 +3 55 +12  1013.9  -0.7  742  286           
00 18.05.18 260 (З) 20000 м    9/0 верхняя 
[Ci fib]
+11 +2.5 56 +11  1013.7  -0.2  742  287           
03 18.05.18 280 (З) 20000 м    9/0 верхняя 
[Ci fib]
+16.4 +4 44 +17  1013  -0.2  742  281  +10.2        сухая 
06 18.05.18 320 (СЗ) 20000 м    9/0 верхняя 
[Cc]
+22.1 +0.4 24 +22  1012.5  742  276           
09 18.05.18 320 (СЗ) 20000 м    9/0 верхняя 
[Cu hum|Ci fib]
+22.9 -0.7 21 +23  1012.9  0.4  742  276           
12 18.05.18 070 (В) 20000 м    9/6 1000 м верхняя 
[Cu hum|Ci fib]
+22.7 -0.3 22 +23  1013.4  0.5  742  276           
18 18.05.18 120 (ЮВ) 20000 м    9/8 1000 м верхняя 
[Cu hum|Ci fib]
+14 +1.9 44 +15  1017.4  1.6  745  285           
21 18.05.18 130 (ЮВ) 20000 м    10/10 600 м кучево-дожд. 
[Cb cap]
+11.5 +1.2 49 +11  1017.5  0.1  745  288           
00 19.05.18 140 (ЮВ) 20000 м    9/3 600 м верхняя 
[Sc|Ci fib]
+9 +1.5 59 +9  1016.7  -1  744  290           
03 19.05.18 160 (Ю) 20000 м    9/0 верхняя 
[Ci fib]
+13.4 +2.6 48 +13  1015.1  -1.2  743  285  +8.9        сухая 
06 19.05.18 150 (ЮВ) 20000 м    9/0 верхняя 
[Ci fib]
+20.1 +7.3 43 +20  1013.2  -1.2  742  277           
09 19.05.18 150 (ЮВ) 20000 м    9/6 600 м кучево-дожд., средняя, верхняя 
[Cb cap|Ac trans|Ci fib]
+24.1 +11.2 44 +27  1011.3  -1.5  741  272           
12 19.05.18 190 (Ю) 4{10}  20000 м    9/9 600 м кучево-дожд. 
[Cb cap]
+23.4 +11.4 47 +27  1011.2  -0.2  741  273           
21 19.05.18 180 (Ю) 2{12}  20000 м    9/9 600 м кучево-дожд. 
[Cb cap]
+15.7 +12 79 +20  1009.6  -0.7  739  279           
00 20.05.18 220 (ЮЗ) 20000 м    9/3 600 м верхняя 
[Sc|Cs]
+16.7 +11.8 73 +22  1009.4  0.1  739  278           
03 20.05.18 220 (ЮЗ) 20000 м    3/3 1000 м 
[Cu hum]
+19.6 +11.7 60 +24  1009  0.1  739  276  +15.4        сухая 
06 20.05.18 210 (ЮЗ) 4{10}  20000 м    8/4 1000 м верхняя 
[Cu hum|Cs]
+24.4 +11.2 44 +28  1006.4  -2.2  737  271           
18 20.05.18 270 (З) 20000 м  {гроза, ливн. осадки}  9/9 600 м кучево-дожд. 
[Cb cap]
+14.9 +13.2 90 +22  1011.6  2.1  740  280           
21 20.05.18 320 (СЗ) 20000 м    10/10 600 м кучево-дожд. 
[Cb cap]
+11.5 +10.5 94 +13  1014.2  2.2  742  285           
00 21.05.18 310 (СЗ) 20000 м    10/10 600 м кучево-дожд. 
[Cb cap]
+8.5 +7.6 94 +9  1017.1  2.6  744  289           
Время (UTC), дата Ветер
(°,м/с) 
Видим.   Явления Облачность Т
(°С)
Тd
(°С)
f(%) Тe
(°С)
Pmin
(гПа)
dP
(гПа)
Po
(мм)
O2
(г/м3)
Тmin Tmax R s Состояние
почвы

Для получения пояснительной информации подведите курсор к названию столбца.

ПОГОДА в Красноуфимске - архив

Всё, что Вы хотите узнать о погоде в Красноуфимске - удобно и подробно!

Выберите нужную дату (начиная с 1 января 2015* года) и нажмите кнопку "Найти".
Будут отображены архивные сводки погоды по пункту Красноуфимск, начиная с указанной даты.


Отображать данные в формате CSV (для использования в таблицах Excel)


Внимание! Наш архив погоды предназначен исключительно для личного некоммерческого использования в познавательных целях. Если Вам необходимы официальные справки о состоянии погоды (для производственных, юридических, коммерческих и т.п. целей), обращайтесь в органы Росгидромета.

*Примечание: данная дата относится к архиву по метеостанциям СССР (Россия, СНГ, Балтия).
Архив по метеостанциям Зарубежной Европы и Азии (кроме Китая) хранится 10 дней, по другим регионам земного шара (Китай, Африка, Америка, Австралия, Океания) - 1 день.

Красноуфимск - район местоположения метеостанции


Название, широта, долгота, высота метеостанции:
Красноуфимск 56.6°ш. 57.8°д. 206 м над ур. моря [Российская Федерация]

Дополнительная информация

В oтличие oт бoльшинства пoгoдных сайтoв мы публикуем пoдрoбную метеoинфoрмацию в детальнoм прoфессиoнальнoм фoрмате.

Характеристики температуры и влажнoсти вoздуха измеряются на высoте 2 м в тени вдали oт зданий и деревьев.
Скoрoсть ветра измеряется на высoте 10 м (на урoвне рoста челoвека скoрoсть ветра ниже в 1.5-2 раза). Если метеoстанция нахoдится в гoрoде или в лесу, тo скoрoсть ветра занижена на 2-4 м/с пo сравнению с oткрытым местoм. Скoрoсть ветра над акватoриями крупных рек и oзёр, а также на вершинах хoлмoв на 2-5 м/с выше, чем в oбычных услoвиях.
Атмoсфернoе давление в разных тoчках местнoсти мoжет значительнo oтличаться oт давления на метеoстанции, в зависимoсти oт услoвий рельефа (при пoдъёме на 10 м давление пoнижается примернo на 1 мм рт.ст.).